QPF
0.00 0.00 0.00 0.00 0.00 0.00 0.01 0.01 0.01 0.01 0.01 0.03 0.02 0.02 0.03 0.03 0.02 0.02 0.02 0.01 0.01 0.01 0.01 0.01 0.01 0.01 0.01 0.01 0.00 0.00 0.00 0.00 0.01 0.02 0.02 0.02 0.03 0.03 0.02 0.01 0.01 0.01 0.01 0.01
0.00 0.00 0.00 0.00 0.00 0.01 0.01 0.00 0.00 0.00 0.01 0.01 0.01 0.01 0.02 0.02 0.01 0.02 0.01 0.01 0.01 0.01 0.01 0.01 0.01 0.00 0.00 0.00 0.00 0.00 0.00 0.00 0.01 0.01 0.02 0.02 0.02 0.02 0.01 0.01 0.00 0.01 0.01 0.01
0.00 0.00 0.00 0.00 0.00 0.00 0.01 0.00 0.00 0.00 0.01 0.01 0.01 0.02 0.02 0.03 0.03 0.02 0.02 0.01 0.01 0.02 0.01 0.01 0.01 0.00 0.00 0.00 0.00 0.00 0.00 0.00 0.00 0.00 0.01 0.01 0.01 0.01 0.01 0.00 0.00 0.01 0.01 0.01
0.00 0.00 0.00 0.00 0.00 0.01 0.01 0.02 0.03 0.02 0.02 0.02 0.02 0.02 0.03 0.05 0.04 0.02 0.02 0.01 0.01 0.02 0.02 0.01 0.01 0.00 0.00 0.00 0.00 0.00 0.00 0.00 0.00 0.00 0.01 0.00 0.00 0.01 0.01 0.00 0.01 0.01 0.02 0.02
0.00 0.00 0.00 0.00 0.00 0.01 0.03 0.06 0.08 0.04 0.02 0.02 0.02 0.02 0.02 0.02 0.02 0.01 0.01 0.01 0.01 0.01 0.01 0.00 0.00 0.00 0.00 0.00 0.00 0.00 0.00 0.00 0.01 0.01 0.00 0.00 0.00 0.00 0.01 0.02 0.03 0.06 0.09 0.04
0.00 0.00 0.00 0.00 0.00 0.01 0.03 0.09 0.08 0.03 0.02 0.01 0.02 0.02 0.01 0.01 0.01 0.00 0.00 0.01 0.01 0.00 0.00 0.00 0.00 0.00 0.01 0.01 0.01 0.01 0.01 0.01 0.01 0.01 0.01 0.00 0.00 0.01 0.02 0.03 0.05 0.11 0.09 0.05
0.00 0.00 0.01 0.01 0.00 0.01 0.04 0.08 0.07 0.04 0.03 0.02 0.02 0.02 0.02 0.01 0.01 0.01 0.00 0.01 0.00 0.00 0.00 0.00 0.00 0.00 0.01 0.01 0.02 0.02 0.02 0.02 0.01 0.01 0.02 0.02 0.02 0.02 0.03 0.04 0.06 0.06 0.03 0.02
0.00 0.00 0.01 0.01 0.01 0.02 0.06 0.04 0.03 0.05 0.07 0.04 0.02 0.02 0.03 0.02 0.01 0.01 0.01 0.00 0.00 0.00 0.00 0.01 0.01 0.01 0.01 0.01 0.02 0.03 0.03 0.02 0.02 0.03 0.04 0.04 0.04 0.05 0.04 0.03 0.02 0.01 0.01 0.01
0.01 0.01 0.01 0.01 0.02 0.03 0.04 0.04 0.02 0.04 0.05 0.03 0.02 0.02 0.03 0.04 0.04 0.03 0.02 0.02 0.01 0.01 0.01 0.01 0.01 0.01 0.01 0.01 0.01 0.02 0.03 0.02 0.02 0.04 0.06 0.06 0.05 0.04 0.02 0.02 0.01 0.01 0.01 0.01
0.01 0.02 0.02 0.01 0.01 0.02 0.02 0.03 0.02 0.02 0.02 0.01 0.01 0.01 0.01 0.02 0.02 0.03 0.03 0.02 0.02 0.01 0.02 0.02 0.01 0.01 0.01 0.01 0.02 0.03 0.03 0.03 0.05 0.05 0.05 0.04 0.03 0.03 0.02 0.01 0.01 0.01 0.01 0.02
0.03 0.03 0.04 0.04 0.02 0.03 0.03 0.03 0.01 0.01 0.02 0.02 0.01 0.02 0.04 0.07 0.06 0.04 0.03 0.03 0.03 0.02 0.02 0.02 0.02 0.02 0.02 0.02 0.02 0.02 0.03 0.04 0.05 0.05 0.04 0.04 0.03 0.03 0.02 0.01 0.01 0.02 0.02 0.03
0.03 0.02 0.02 0.03 0.03 0.02 0.02 0.03 0.03 0.02 0.03 0.04 0.04 0.06 0.07 0.08 0.09 0.07 0.06 0.04 0.04 0.03 0.03 0.02 0.02 0.03 0.03 0.03 0.02 0.02 0.02 0.03 0.03 0.03 0.03 0.03 0.02 0.02 0.02 0.02 0.02 0.02 0.02 0.03
0.03 0.03 0.02 0.02 0.02 0.03 0.03 0.04 0.05 0.04 0.04 0.05 0.05 0.07 0.06 0.04 0.05 0.05 0.05 0.04 0.03 0.03 0.03 0.03 0.03 0.02 0.03 0.03 0.03 0.03 0.02 0.02 0.02 0.02 0.02 0.02 0.02 0.02 0.01 0.02 0.02 0.02 0.02 0.02
0.05 0.06 0.04 0.03 0.03 0.03 0.03 0.03 0.04 0.05 0.05 0.04 0.03 0.03 0.03 0.03 0.03 0.03 0.03 0.02 0.02 0.02 0.02 0.03 0.03 0.04 0.05 0.06 0.05 0.04 0.03 0.03 0.03 0.02 0.02 0.02 0.02 0.02 0.02 0.01 0.02 0.02 0.03 0.03
0.05 0.08 0.07 0.05 0.04 0.04 0.03 0.03 0.03 0.05 0.07 0.06 0.04 0.02 0.02 0.03 0.03 0.03 0.03 0.03 0.02 0.02 0.02 0.02 0.02 0.03 0.03 0.04 0.03 0.03 0.03 0.03 0.03 0.03 0.03 0.02 0.02 0.03 0.03 0.03 0.02 0.02 0.03 0.04
0.04 0.06 0.07 0.06 0.04 0.03 0.02 0.02 0.02 0.04 0.05 0.05 0.05 0.04 0.04 0.08 0.08 0.06 0.05 0.05 0.04 0.03 0.03 0.02 0.02 0.03 0.03 0.03 0.03 0.03 0.04 0.05 0.05 0.04 0.04 0.04 0.04 0.04 0.05 0.05 0.04 0.04 0.04 0.04
0.05 0.04 0.04 0.06 0.04 0.02 0.02 0.02 0.02 0.03 0.04 0.07 0.05 0.04 0.05 0.06 0.11 0.13 0.15 0.12 0.10 0.08 0.06 0.04 0.03 0.03 0.03 0.03 0.03 0.03 0.04 0.04 0.06 0.06 0.07 0.06 0.06 0.06 0.06 0.06 0.06 0.05 0.05 0.06
0.08 0.06 0.04 0.04 0.05 0.03 0.02 0.03 0.04 0.04 0.05 0.08 0.06 0.05 0.08 0.10 0.11 0.13 0.14 0.17 0.15 0.14 0.12 0.09 0.06 0.05 0.04 0.03 0.02 0.02 0.02 0.03 0.03 0.04 0.04 0.05 0.05 0.06 0.06 0.06 0.07 0.07 0.07 0.07
0.04 0.04 0.05 0.05 0.07 0.05 0.04 0.04 0.03 0.04 0.04 0.05 0.08 0.06 0.05 0.05 0.05 0.07 0.14 0.14 0.12 0.09 0.09 0.08 0.07 0.05 0.05 0.05 0.04 0.03 0.03 0.02 0.02 0.02 0.02 0.03 0.04 0.06 0.07 0.07 0.08 0.08 0.07 0.06
0.04 0.02 0.02 0.03 0.04 0.04 0.04 0.03 0.03 0.03 0.04 0.04 0.04 0.05 0.06 0.05 0.04 0.04 0.05 0.05 0.04 0.04 0.04 0.03 0.02 0.02 0.04 0.07 0.08 0.06 0.04 0.03 0.02 0.02 0.03 0.03 0.04 0.06 0.07 0.07 0.07 0.06 0.05 0.04
0.06 0.03 0.02 0.02 0.03 0.04 0.03 0.03 0.03 0.03 0.03 0.03 0.03 0.03 0.03 0.04 0.04 0.05 0.04 0.04 0.04 0.04 0.05 0.05 0.04 0.04 0.04 0.06 0.08 0.08 0.08 0.07 0.05 0.04 0.05 0.04 0.04 0.05 0.06 0.06 0.06 0.06 0.05 0.04
0.05 0.03 0.03 0.03 0.04 0.05 0.04 0.04 0.05 0.05 0.05 0.06 0.06 0.05 0.03 0.03 0.04 0.04 0.04 0.03 0.05 0.05 0.04 0.04 0.05 0.05 0.05 0.05 0.05 0.06 0.09 0.10 0.09 0.07 0.07 0.06 0.06 0.07 0.07 0.09 0.09 0.08 0.07 0.06
0.03 0.03 0.02 0.03 0.03 0.03 0.03 0.03 0.03 0.04 0.03 0.03 0.03 0.03 0.03 0.04 0.04 0.04 0.04 0.04 0.04 0.05 0.04 0.06 0.09 0.08 0.07 0.07 0.07 0.07 0.08 0.10 0.08 0.06 0.05 0.05 0.06 0.07 0.07 0.08 0.09 0.08 0.07 0.05
0.03 0.03 0.02 0.03 0.04 0.04 0.03 0.02 0.03 0.03 0.03 0.03 0.03 0.03 0.04 0.04 0.05 0.06 0.07 0.07 0.06 0.06 0.06 0.08 0.14 0.14 0.12 0.11 0.10 0.11 0.12 0.11 0.10 0.08 0.07 0.07 0.07 0.07 0.06 0.07 0.08 0.07 0.05 0.04
0.04 0.03 0.03 0.03 0.04 0.04 0.03 0.04 0.04 0.04 0.04 0.05 0.05 0.05 0.05 0.05 0.04 0.03 0.04 0.06 0.06 0.05 0.06 0.07 0.10 0.13 0.13 0.12 0.11 0.11 0.13 0.16 0.19 0.15 0.10 0.08 0.07 0.06 0.06 0.05 0.06 0.08 0.07 0.05
0.06 0.05 0.05 0.04 0.03 0.02 0.02 0.03 0.03 0.02 0.03 0.03 0.03 0.04 0.04 0.05 0.04 0.04 0.03 0.05 0.05 0.05 0.05 0.06 0.06 0.07 0.08 0.09 0.10 0.09 0.09 0.11 0.14 0.16 0.11 0.07 0.06 0.05 0.04 0.03 0.03 0.04 0.05 0.05
0.07 0.07 0.05 0.05 0.05 0.05 0.05 0.03 0.03 0.03 0.03 0.05 0.05 0.05 0.06 0.06 0.06 0.06 0.05 0.06 0.06 0.05 0.05 0.05 0.05 0.05 0.06 0.05 0.06 0.06 0.07 0.06 0.06 0.06 0.07 0.05 0.04 0.03 0.03 0.02 0.02 0.02 0.03 0.05
MSLP
1010.51 1011.13 1011.71 1012.25 1012.75 1013.19 1013.59 1013.91 1014.16 1014.31 1014.37 1014.36 1014.28 1014.17 1014.07 1013.99 1013.96 1013.98 1014.05 1014.15 1014.25 1014.33 1014.38 1014.37 1014.32 1014.24 1014.14 1014.05 1014.01 1014.02 1014.09 1014.22 1014.41 1014.64 1014.88 1015.13 1015.37 1015.59 1015.79 1015.97 1016.13 1016.30 1016.47 1016.64
1010.89 1011.41 1011.79 1012.04 1012.18 1012.27 1012.34 1012.41 1012.49 1012.60 1012.73 1012.86 1013.00 1013.14 1013.26 1013.36 1013.46 1013.54 1013.61 1013.67 1013.72 1013.75 1013.78 1013.79 1013.80 1013.81 1013.82 1013.85 1013.90 1013.97 1014.08 1014.22 1014.39 1014.59 1014.80 1015.03 1015.26 1015.48 1015.70 1015.90 1016.08 1016.24 1016.40 1016.55
1011.43 1011.82 1011.96 1011.91 1011.72 1011.47 1011.22 1011.03 1010.95 1010.99 1011.15 1011.40 1011.71 1012.04 1012.34 1012.60 1012.80 1012.93 1013.02 1013.06 1013.08 1013.11 1013.15 1013.22 1013.32 1013.44 1013.59 1013.74 1013.90 1014.06 1014.21 1014.36 1014.52 1014.68 1014.85 1015.04 1015.24 1015.44 1015.66 1015.86 1016.04 1016.20 1016.34 1016.46
1012.04 1012.25 1012.16 1011.82 1011.32 1010.75 1010.21 1009.80 1009.56 1009.53 1009.68 1010.00 1010.43 1010.90 1011.34 1011.72 1012.01 1012.21 1012.32 1012.37 1012.41 1012.46 1012.55 1012.70 1012.91 1013.16 1013.44 1013.73 1014.00 1014.24 1014.44 1014.60 1014.73 1014.84 1014.97 1015.10 1015.26 1015.44 1015.63 1015.83 1016.01 1016.16 1016.29 1016.38
1012.53 1012.55 1012.24 1011.65 1010.88 1010.06 1009.29 1008.69 1008.32 1008.21 1008.36 1008.71 1009.21 1009.77 1010.32 1010.80 1011.17 1011.43 1011.59 1011.69 1011.77 1011.88 1012.05 1012.30 1012.62 1013.00 1013.40 1013.81 1014.17 1014.47 1014.70 1014.86 1014.96 1015.03 1015.10 1015.19 1015.30 1015.45 1015.62 1015.80 1015.98 1016.14 1016.26 1016.33
1012.73 1012.57 1012.06 1011.28 1010.32 1009.32 1008.40 1007.67 1007.21 1007.05 1007.18 1007.56 1008.11 1008.74 1009.37 1009.93 1010.38 1010.72 1010.95 1011.12 1011.28 1011.46 1011.72 1012.06 1012.48 1012.96 1013.46 1013.94 1014.37 1014.70 1014.94 1015.09 1015.17 1015.20 1015.22 1015.26 1015.34 1015.46 1015.62 1015.80 1015.99 1016.15 1016.27 1016.35
1012.51 1012.19 1011.54 1010.63 1009.57 1008.48 1007.50 1006.72 1006.23 1006.06 1006.20 1006.59 1007.18 1007.87 1008.56 1009.20 1009.73 1010.15 1010.48 1010.74 1010.98 1011.26 1011.60 1012.02 1012.51 1013.06 1013.61 1014.13 1014.57 1014.91 1015.15 1015.28 1015.32 1015.32 1015.32 1015.33 1015.39 1015.51 1015.67 1015.86 1016.06 1016.24 1016.38 1016.47
1011.80 1011.36 1010.64 1009.69 1008.62 1007.55 1006.60 1005.86 1005.40 1005.27 1005.44 1005.87 1006.50 1007.23 1007.98 1008.68 1009.30 1009.81 1010.24 1010.60 1010.94 1011.30 1011.71 1012.18 1012.71 1013.28 1013.83 1014.34 1014.77 1015.09 1015.29 1015.40 1015.43 1015.41 1015.40 1015.41 1015.48 1015.61 1015.79 1016.01 1016.23 1016.44 1016.60 1016.71
1010.65 1010.15 1009.42 1008.52 1007.53 1006.57 1005.74 1005.12 1004.76 1004.70 1004.94 1005.42 1006.09 1006.86 1007.67 1008.44 1009.13 1009.74 1010.25 1010.71 1011.13 1011.56 1012.02 1012.52 1013.05 1013.59 1014.11 1014.57 1014.95 1015.22 1015.40 1015.48 1015.50 1015.49 1015.49 1015.53 1015.63 1015.79 1016.00 1016.25 1016.51 1016.74 1016.92 1017.05
1009.19 1008.68 1008.01 1007.24 1006.42 1005.64 1005.00 1004.55 1004.34 1004.40 1004.72 1005.26 1005.98 1006.79 1007.63 1008.45 1009.21 1009.89 1010.49 1011.03 1011.52 1012.00 1012.48 1012.97 1013.47 1013.95 1014.40 1014.79 1015.10 1015.32 1015.45 1015.52 1015.55 1015.56 1015.60 1015.68 1015.83 1016.04 1016.29 1016.58 1016.86 1017.12 1017.31 1017.44
1007.62 1007.16 1006.60 1006.00 1005.40 1004.86 1004.45 1004.21 1004.18 1004.37 1004.78 1005.38 1006.13 1006.96 1007.83 1008.68 1009.48 1010.21 1010.87 1011.46 1012.00 1012.51 1012.99 1013.45 1013.89 1014.30 1014.67 1014.97 1015.21 1015.37 1015.48 1015.54 1015.58 1015.64 1015.72 1015.86 1016.06 1016.32 1016.62 1016.93 1017.23 1017.50 1017.70 1017.82
1006.17 1005.78 1005.38 1004.97 1004.61 1004.32 1004.15 1004.12 1004.26 1004.58 1005.08 1005.72 1006.48 1007.31 1008.17 1009.03 1009.84 1010.60 1011.29 1011.91 1012.47 1012.97 1013.44 1013.86 1014.24 1014.57 1014.85 1015.08 1015.25 1015.37 1015.46 1015.53 1015.60 1015.70 1015.84 1016.03 1016.28 1016.58 1016.90 1017.23 1017.54 1017.80 1017.99 1018.10
1005.02 1004.72 1004.46 1004.25 1004.11 1004.06 1004.10 1004.26 1004.56 1004.98 1005.53 1006.19 1006.93 1007.74 1008.56 1009.39 1010.18 1010.93 1011.62 1012.25 1012.81 1013.30 1013.74 1014.12 1014.44 1014.71 1014.93 1015.09 1015.22 1015.31 1015.39 1015.47 1015.58 1015.72 1015.91 1016.15 1016.44 1016.76 1017.09 1017.41 1017.71 1017.95 1018.12 1018.21
1004.26 1004.05 1003.92 1003.88 1003.92 1004.06 1004.28 1004.59 1004.99 1005.48 1006.05 1006.70 1007.40 1008.14 1008.91 1009.68 1010.42 1011.14 1011.80 1012.41 1012.95 1013.43 1013.84 1014.18 1014.47 1014.69 1014.86 1014.99 1015.09 1015.18 1015.26 1015.37 1015.51 1015.68 1015.91 1016.17 1016.48 1016.80 1017.12 1017.43 1017.70 1017.91 1018.06 1018.13
1003.92 1003.77 1003.74 1003.82 1004.00 1004.27 1004.62 1005.03 1005.49 1006.00 1006.56 1007.17 1007.80 1008.47 1009.15 1009.84 1010.51 1011.17 1011.79 1012.36 1012.88 1013.34 1013.73 1014.05 1014.31 1014.51 1014.66 1014.78 1014.88 1014.97 1015.08 1015.21 1015.37 1015.58 1015.82 1016.09 1016.39 1016.70 1017.00 1017.27 1017.50 1017.68 1017.81 1017.88
1003.92 1003.81 1003.84 1004.00 1004.27 1004.62 1005.03 1005.49 1005.98 1006.48 1007.00 1007.54 1008.10 1008.68 1009.26 1009.86 1010.45 1011.04 1011.61 1012.14 1012.63 1013.06 1013.44 1013.75 1014.00 1014.20 1014.36 1014.49 1014.61 1014.72 1014.85 1015.00 1015.19 1015.40 1015.65 1015.92 1016.20 1016.47 1016.74 1016.97 1017.17 1017.32 1017.43 1017.49
1004.16 1004.07 1004.13 1004.33 1004.63 1005.02 1005.46 1005.92 1006.40 1006.87 1007.34 1007.82 1008.29 1008.77 1009.27 1009.77 1010.29 1010.81 1011.32 1011.81 1012.26 1012.68 1013.04 1013.36 1013.62 1013.83 1014.01 1014.17 1014.31 1014.45 1014.60 1014.78 1014.97 1015.19 1015.43 1015.68 1015.93 1016.17 1016.39 1016.59 1016.76 1016.89 1016.99 1017.06
1004.51 1004.43 1004.50 1004.71 1005.02 1005.40 1005.83 1006.28 1006.73 1007.16 1007.58 1007.99 1008.39 1008.80 1009.21 1009.64 1010.09 1010.55 1011.00 1011.45 1011.88 1012.28 1012.64 1012.96 1013.23 1013.47 1013.67 1013.85 1014.02 1014.19 1014.37 1014.55 1014.75 1014.97 1015.19 1015.41 1015.63 1015.84 1016.03 1016.19 1016.33 1016.45 1016.56 1016.64
1004.89 1004.81 1004.88 1005.08 1005.37 1005.74 1006.14 1006.56 1006.97 1007.37 1007.75 1008.11 1008.46 1008.81 1009.17 1009.54 1009.93 1010.34 1010.75 1011.16 1011.57 1011.95 1012.30 1012.62 1012.91 1013.16 1013.38 1013.59 1013.78 1013.97 1014.16 1014.35 1014.55 1014.75 1014.95 1015.15 1015.34 1015.51 1015.68 1015.82 1015.95 1016.07 1016.17 1016.27
1005.24 1005.17 1005.24 1005.42 1005.69 1006.03 1006.40 1006.78 1007.16 1007.53 1007.87 1008.20 1008.52 1008.84 1009.17 1009.51 1009.87 1010.24 1010.62 1011.00 1011.38 1011.74 1012.08 1012.40 1012.68 1012.94 1013.18 1013.39 1013.59 1013.79 1013.97 1014.16 1014.35 1014.53 1014.71 1014.89 1015.05 1015.21 1015.36 1015.49 1015.62 1015.73 1015.84 1015.94
1005.57 1005.52 1005.58 1005.74 1005.99 1006.29 1006.62 1006.97 1007.32 1007.66 1007.99 1008.31 1008.61 1008.92 1009.24 1009.56 1009.90 1010.25 1010.61 1010.97 1011.32 1011.66 1011.98 1012.28 1012.56 1012.81 1013.04 1013.24 1013.44 1013.63 1013.80 1013.97 1014.14 1014.30 1014.46 1014.62 1014.76 1014.91 1015.04 1015.17 1015.30 1015.42 1015.53 1015.64
1005.91 1005.88 1005.94 1006.08 1006.29 1006.55 1006.85 1007.16 1007.48 1007.80 1008.11 1008.42 1008.73 1009.04 1009.36 1009.69 1010.02 1010.36 1010.70 1011.03 1011.36 1011.67 1011.97 1012.24 1012.49 1012.72 1012.92 1013.11 1013.29 1013.45 1013.60 1013.75 1013.89 1014.03 1014.17 1014.30 1014.43 1014.56 1014.69 1014.82 1014.95 1015.07 1015.18 1015.29
1006.30 1006.28 1006.34 1006.45 1006.62 1006.84 1007.08 1007.35 1007.64 1007.94 1008.24 1008.55 1008.86 1009.18 1009.50 1009.83 1010.16 1010.49 1010.81 1011.13 1011.43 1011.71 1011.97 1012.21 1012.42 1012.62 1012.79 1012.95 1013.09 1013.22 1013.34 1013.46 1013.57 1013.68 1013.79 1013.90 1014.01 1014.13 1014.26 1014.39 1014.52 1014.64 1014.76 1014.86
1006.76 1006.75 1006.78 1006.86 1006.99 1007.15 1007.34 1007.56 1007.80 1008.07 1008.35 1008.65 1008.96 1009.28 1009.61 1009.94 1010.26 1010.58 1010.89 1011.18 1011.44 1011.69 1011.91 1012.11 1012.29 1012.45 1012.58 1012.70 1012.81 1012.90 1012.98 1013.06 1013.14 1013.21 1013.29 1013.38 1013.48 1013.59 1013.70 1013.83 1013.96 1014.09 1014.20 1014.31
1007.26 1007.25 1007.26 1007.29 1007.36 1007.46 1007.60 1007.76 1007.96 1008.19 1008.44 1008.72 1009.02 1009.33 1009.65 1009.97 1010.28 1010.58 1010.86 1011.11 1011.35 1011.56 1011.74 1011.90 1012.04 1012.15 1012.25 1012.33 1012.40 1012.46 1012.50 1012.55 1012.59 1012.63 1012.68 1012.74 1012.82 1012.91 1013.02 1013.14 1013.27 1013.40 1013.53 1013.64
1007.76 1007.73 1007.71 1007.71 1007.72 1007.76 1007.83 1007.94 1008.09 1008.27 1008.49 1008.74 1009.02 1009.30 1009.60 1009.89 1010.17 1010.44 1010.68 1010.90 1011.09 1011.26 1011.40 1011.52 1011.62 1011.70 1011.77 1011.82 1011.85 1011.88 1011.90 1011.91 1011.92 1011.93 1011.96 1011.99 1012.05 1012.12 1012.22 1012.33 1012.47 1012.60 1012.75 1012.88
1008.19 1008.14 1008.09 1008.04 1008.00 1007.99 1008.01 1008.07 1008.17 1008.32 1008.50 1008.71 1008.95 1009.20 1009.45 1009.70 1009.94 1010.16 1010.35 1010.52 1010.67 1010.79 1010.89 1010.98 1011.04 1011.10 1011.13 1011.16 1011.17 1011.18 1011.17 1011.16 1011.14 1011.13 1011.13 1011.15 1011.18 1011.24 1011.33 1011.44 1011.57 1011.72 1011.88 1012.04
Thickness
5780 5792 5798 5800 5803 5804 5793 5784 5777 5787 5795 5810 5821 5826 5827 5829 5828 5825 5822 5820 5820 5816 5814 5812 5808 5805 5802 5798 5795 5791 5785 5780 5777 5774 5770 5766 5762 5759 5756 5753 5750 5746 5743 5740
5775 5791 5795 5795 5803 5806 5803 5799 5796 5798 5801 5821 5826 5828 5826 5827 5826 5822 5820 5821 5819 5817 5813 5810 5806 5805 5802 5798 5795 5791 5785 5780 5777 5773 5769 5765 5761 5757 5753 5750 5746 5743 5739 5736
5751 5773 5781 5772 5793 5800 5800 5804 5801 5791 5802 5817 5816 5819 5821 5824 5826 5823 5821 5820 5819 5817 5814 5811 5808 5805 5802 5799 5795 5789 5784 5780 5775 5771 5767 5763 5759 5755 5750 5746 5742 5738 5734 5732
5739 5753 5742 5772 5805 5810 5804 5806 5811 5811 5813 5816 5817 5820 5824 5827 5825 5822 5822 5820 5819 5817 5814 5812 5809 5805 5802 5799 5793 5788 5783 5779 5775 5770 5765 5761 5756 5752 5747 5743 5738 5733 5730 5727
5724 5729 5744 5775 5797 5801 5794 5790 5808 5810 5810 5812 5815 5812 5811 5822 5825 5824 5825 5824 5821 5819 5815 5812 5809 5805 5800 5795 5791 5786 5782 5778 5774 5769 5764 5759 5753 5749 5745 5740 5734 5731 5726 5722
5721 5724 5725 5758 5794 5808 5797 5775 5802 5808 5805 5805 5806 5787 5795 5816 5822 5823 5824 5823 5820 5817 5813 5808 5805 5803 5797 5791 5787 5783 5781 5778 5774 5769 5763 5757 5752 5747 5742 5737 5733 5728 5722 5718
5715 5719 5734 5770 5793 5799 5764 5766 5798 5805 5804 5803 5801 5803 5811 5816 5818 5820 5820 5819 5818 5813 5808 5806 5803 5799 5792 5788 5785 5784 5781 5776 5771 5767 5761 5756 5750 5745 5739 5733 5728 5723 5718 5713
5707 5710 5726 5773 5781 5772 5773 5791 5798 5802 5803 5802 5803 5806 5809 5811 5812 5813 5812 5812 5811 5807 5803 5802 5800 5795 5789 5785 5785 5782 5776 5771 5767 5762 5758 5751 5745 5739 5734 5729 5723 5718 5713 5708
5717 5723 5750 5769 5775 5783 5787 5787 5792 5796 5799 5800 5799 5799 5801 5802 5803 5804 5805 5804 5804 5802 5797 5795 5794 5791 5785 5783 5781 5777 5771 5766 5762 5757 5753 5747 5740 5734 5729 5724 5719 5713 5709 5703
5719 5732 5747 5760 5771 5779 5784 5787 5791 5794 5795 5796 5794 5794 5793 5794 5794 5794 5794 5794 5795 5793 5789 5786 5786 5785 5783 5780 5777 5771 5766 5761 5757 5752 5747 5742 5737 5731 5726 5721 5715 5710 5705 5700
5710 5725 5738 5748 5759 5767 5773 5781 5785 5787 5789 5789 5789 5786 5786 5785 5785 5786 5786 5785 5785 5784 5782 5780 5780 5778 5776 5774 5771 5765 5760 5756 5752 5747 5742 5736 5731 5727 5723 5720 5717 5711 5705 5700
5701 5717 5723 5732 5749 5759 5762 5765 5771 5774 5774 5778 5780 5778 5777 5776 5776 5777 5777 5777 5776 5776 5775 5773 5772 5770 5769 5767 5764 5758 5753 5749 5745 5741 5735 5729 5723 5718 5716 5714 5711 5708 5704 5699
5710 5721 5727 5735 5743 5749 5752 5757 5762 5764 5765 5764 5766 5769 5768 5766 5768 5768 5768 5768 5768 5768 5768 5766 5764 5762 5761 5760 5757 5752 5747 5744 5739 5735 5729 5723 5719 5714 5709 5705 5703 5700 5697 5693
5710 5716 5716 5723 5729 5737 5742 5747 5752 5753 5755 5757 5757 5758 5758 5757 5757 5758 5758 5759 5760 5759 5758 5757 5755 5753 5753 5753 5750 5745 5741 5738 5734 5729 5724 5720 5715 5711 5706 5701 5695 5691 5688 5685
5701 5708 5710 5716 5722 5727 5732 5735 5736 5738 5741 5743 5746 5747 5748 5747 5746 5748 5750 5751 5751 5749 5747 5747 5746 5745 5746 5744 5741 5738 5735 5731 5727 5724 5719 5715 5711 5706 5701 5696 5691 5686 5680 5676
5691 5699 5704 5706 5709 5714 5718 5721 5722 5725 5729 5731 5731 5733 5736 5737 5737 5737 5739 5741 5738 5736 5736 5737 5737 5738 5738 5736 5733 5729 5727 5724 5721 5717 5713 5708 5704 5700 5694 5689 5685 5680 5675 5670
5680 5683 5688 5692 5697 5702 5707 5710 5711 5714 5717 5718 5720 5723 5725 5725 5725 5726 5728 5731 5731 5730 5728 5727 5728 5729 5729 5727 5724 5721 5718 5715 5712 5709 5705 5702 5698 5693 5689 5684 5679 5675 5671 5667
5677 5681 5685 5688 5690 5693 5696 5700 5703 5704 5705 5708 5710 5713 5713 5713 5713 5716 5718 5720 5721 5720 5720 5719 5720 5719 5718 5718 5716 5713 5710 5707 5703 5700 5697 5694 5690 5687 5683 5678 5674 5669 5665 5660
5670 5674 5678 5681 5684 5686 5687 5688 5691 5694 5696 5697 5698 5700 5702 5702 5704 5706 5708 5708 5708 5707 5708 5711 5711 5709 5708 5708 5706 5703 5700 5697 5694 5692 5689 5686 5682 5678 5675 5671 5668 5663 5659 5654
5661 5666 5669 5672 5676 5676 5677 5679 5681 5683 5684 5686 5687 5689 5690 5691 5693 5695 5696 5696 5698 5699 5701 5701 5699 5698 5698 5698 5696 5693 5690 5688 5684 5682 5679 5676 5673 5670 5667 5664 5661 5657 5652 5648
5652 5657 5661 5662 5664 5667 5669 5670 5671 5672 5674 5677 5678 5678 5679 5681 5683 5685 5684 5683 5686 5688 5689 5689 5688 5688 5687 5686 5685 5683 5681 5678 5675 5673 5670 5667 5664 5661 5658 5655 5652 5649 5645 5642
5642 5646 5650 5652 5654 5656 5660 5663 5664 5665 5667 5668 5669 5669 5669 5670 5671 5673 5674 5674 5676 5677 5678 5678 5678 5678 5678 5677 5675 5673 5671 5669 5666 5663 5661 5658 5656 5653 5650 5647 5644 5641 5637 5634
5635 5638 5641 5643 5645 5647 5651 5653 5655 5656 5658 5659 5660 5660 5661 5661 5662 5662 5662 5666 5667 5667 5667 5668 5668 5668 5668 5666 5665 5664 5662 5660 5657 5655 5653 5651 5648 5646 5642 5640 5637 5633 5630 5627
5629 5631 5633 5635 5637 5638 5639 5642 5645 5647 5650 5652 5653 5653 5653 5652 5653 5655 5657 5657 5658 5659 5658 5658 5658 5658 5657 5656 5655 5653 5652 5650 5648 5647 5645 5643 5641 5637 5634 5632 5628 5625 5623 5620
5623 5625 5627 5628 5628 5630 5632 5634 5635 5637 5639 5641 5643 5645 5646 5647 5647 5648 5649 5649 5649 5649 5649 5649 5649 5649 5648 5646 5645 5643 5642 5640 5639 5637 5636 5633 5631 5628 5625 5623 5621 5618 5615 5612
5616 5618 5619 5621 5621 5622 5624 5625 5626 5628 5631 5632 5634 5636 5638 5639 5640 5640 5641 5641 5641 5641 5640 5639 5639 5638 5637 5636 5635 5634 5632 5631 5629 5628 5626 5623 5621 5619 5617 5615 5613 5610 5607 5604
5610 5611 5613 5613 5615 5616 5618 5618 5619 5621 5623 5625 5626 5628 5630 5631 5631 5631 5631 5631 5631 5630 5630 5630 5630 5629 5627 5627 5626 5624 5623 5621 5620 5619 5617 5615 5613 5611 5609 5607 5605 5602 5599 5596